sat.trackr.live / text

‹ back to catalog

STARLINK-4703

NORAD 53855 · 2022-114AP

PAYLOAD ACTIVE UNKNOWN

§ Identity

Operator
Country
US
Launch date
2022-09-19
Launch site
AFETR
Launch vehicle
Mass (kg)
RCS (m²)

Purposes: comms

External: N2YO · Heavens-Above · Gunter

§ Orbital elements

Epoch: 2026-09-20T03:44:23.828640Z

Period
94.01 min
Inclination
53.1586°
Eccentricity
0.0001169
Mean motion
15.31699669 rev/d
Perigee alt
469.9 km
Apogee alt
471.5 km
Semi-major
6,848.9 km
B*
-1.5675e-6
RAAN
125.4515°
Arg perigee
84.9771°
Mean anomaly
275.1363°
Rev number
22,254

§ Raw data

STARLINK-47031 53855U 22114AP  26263.15583135 -.00000414  00000+0 -15675-5 0  99952 53855  53.1586 125.4515 0001169  84.9771 275.1363 15.31699669222549

JSON: /api/v1/satellites/53855 · /tle

For live sub-satellite position, see the globe view (requires WebGL).

§ Visibility from observer

Set your observer location to see the next 7 days of passes ≥ 10°. The values pass through the URL so the page stays shareable.

No JS? Fill the form by hand. The geolocation button needs JavaScript.